Simultaneous Nadir Overpasses (SNOs) Predictions

Prediction of SNOs between METOP-B and NOAA-19 Satellite Orbit:

Table of predicted SNOs for the next 14.0 days since TLE Epoch: 5/6/2016
Index Date (METOP-B) Time (METOP-B) Lat,Lon (METOP-B) SZA (METOP-B ) Date (NOAA-19) Time (NOAA-19) Lat,Lon (NOAA-19) SZA (NOAA-19 ) Distance(km) Time Diff (sec)
1 05/14/2016 11:34:44 -76.20,-172.80 122.67 05/14/2016 11:33:32 -76.17,-174.04 122.70 33.16 72
2 05/14/2016 12:25:28 76.00, -6.15 57.12 05/14/2016 12:24:25 75.98, -6.09 57.11 2.51 63
3 05/14/2016 13:16:10 -76.00, 161.17 122.89 05/14/2016 13:15:30 -75.99, 161.12 122.90 1.99 40
4 05/14/2016 14:06:50 75.98, -31.55 57.09 05/14/2016 14:06:27 75.98, -31.58 57.08 1.09 23
5 05/14/2016 14:57:32 -75.98, 135.77 122.92 05/14/2016 14:57:32 -75.99, 135.63 122.92 3.99 0
6 05/14/2016 15:48:12 75.97, -56.95 57.06 05/14/2016 15:48:29 75.98, -57.08 57.06 3.53 17
7 05/14/2016 16:38:55 -75.92, 110.22 123.00 05/14/2016 16:39:33 -75.94, 110.29 122.99 2.65 38
8 05/14/2016 17:29:34 75.95, -82.35 57.02 05/14/2016 17:30:30 75.93, -82.41 57.00 3.08 56
9 05/14/2016 18:20:20 -75.76, 84.36 123.18 05/14/2016 18:21:32 -75.80, 85.27 123.14 25.06 72




NCC Satellite Simultaneous Nadir Overpasses (SNOs) Prediction Service
